QPF
0.00 0.00 0.01 0.01 0.01 0.00 0.00 0.00 0.00 0.01 0.02 0.01 0.01 0.01 0.03 0.04 0.03 0.03 0.03 0.03 0.03 0.03 0.03 0.04 0.04 0.04 0.04 0.04 0.03 0.04 0.05 0.05 0.04 0.04 0.04 0.05 0.04 0.03 0.02 0.04 0.04 0.03 0.03
0.00 0.00 0.01 0.01 0.01 0.00 0.00 0.00 0.00 0.01 0.01 0.01 0.02 0.02 0.02 0.02 0.02 0.04 0.05 0.05 0.03 0.02 0.02 0.03 0.03 0.04 0.06 0.04 0.04 0.04 0.03 0.03 0.03 0.05 0.05 0.05 0.06 0.03 0.02 0.03 0.05 0.05 0.04
0.01 0.00 0.01 0.00 0.01 0.01 0.01 0.01 0.01 0.01 0.01 0.01 0.02 0.03 0.03 0.02 0.03 0.05 0.05 0.08 0.06 0.04 0.04 0.04 0.04 0.06 0.06 0.05 0.04 0.04 0.03 0.03 0.03 0.04 0.05 0.05 0.05 0.04 0.03 0.04 0.06 0.05 0.04
0.02 0.01 0.01 0.01 0.02 0.01 0.01 0.02 0.01 0.01 0.01 0.01 0.02 0.03 0.02 0.02 0.03 0.04 0.04 0.04 0.05 0.05 0.05 0.04 0.04 0.05 0.06 0.07 0.07 0.05 0.05 0.04 0.03 0.03 0.05 0.05 0.05 0.05 0.05 0.04 0.05 0.04 0.05
0.02 0.02 0.02 0.01 0.01 0.01 0.03 0.03 0.02 0.01 0.01 0.02 0.03 0.03 0.02 0.03 0.03 0.04 0.04 0.04 0.04 0.05 0.06 0.06 0.06 0.07 0.07 0.06 0.06 0.06 0.04 0.03 0.03 0.04 0.05 0.06 0.07 0.07 0.06 0.05 0.05 0.03 0.03
0.04 0.03 0.03 0.03 0.03 0.02 0.03 0.04 0.04 0.06 0.06 0.04 0.04 0.04 0.05 0.05 0.04 0.04 0.05 0.04 0.04 0.04 0.04 0.05 0.05 0.05 0.06 0.06 0.06 0.05 0.04 0.05 0.04 0.03 0.03 0.04 0.05 0.04 0.05 0.06 0.05 0.04 0.03
0.04 0.04 0.03 0.03 0.03 0.03 0.02 0.02 0.03 0.04 0.05 0.06 0.07 0.05 0.04 0.05 0.04 0.04 0.04 0.04 0.03 0.03 0.03 0.03 0.04 0.04 0.06 0.08 0.08 0.05 0.03 0.03 0.03 0.02 0.02 0.03 0.03 0.04 0.04 0.05 0.04 0.04 0.05
0.08 0.04 0.04 0.03 0.03 0.03 0.03 0.03 0.03 0.05 0.07 0.10 0.10 0.06 0.04 0.04 0.05 0.05 0.03 0.03 0.02 0.02 0.03 0.02 0.02 0.03 0.04 0.04 0.04 0.03 0.03 0.03 0.02 0.02 0.03 0.02 0.02 0.03 0.04 0.04 0.04 0.04 0.06
0.06 0.03 0.03 0.03 0.03 0.03 0.06 0.08 0.05 0.04 0.05 0.11 0.11 0.07 0.05 0.03 0.03 0.03 0.02 0.01 0.01 0.01 0.01 0.01 0.01 0.02 0.03 0.04 0.05 0.04 0.03 0.03 0.02 0.02 0.02 0.02 0.02 0.03 0.03 0.04 0.04 0.06 0.07
0.03 0.02 0.01 0.01 0.02 0.02 0.06 0.06 0.05 0.02 0.03 0.04 0.04 0.05 0.05 0.04 0.03 0.03 0.02 0.02 0.02 0.02 0.01 0.01 0.02 0.01 0.02 0.03 0.04 0.05 0.05 0.03 0.02 0.02 0.02 0.02 0.02 0.03 0.04 0.06 0.06 0.06 0.05
0.02 0.01 0.01 0.01 0.01 0.01 0.05 0.05 0.03 0.04 0.05 0.06 0.05 0.04 0.06 0.06 0.04 0.03 0.03 0.03 0.02 0.02 0.01 0.02 0.03 0.02 0.01 0.02 0.03 0.04 0.05 0.06 0.05 0.03 0.02 0.02 0.02 0.02 0.03 0.04 0.05 0.06 0.06
0.02 0.01 0.01 0.01 0.01 0.01 0.02 0.08 0.12 0.10 0.10 0.11 0.13 0.11 0.07 0.07 0.06 0.03 0.03 0.03 0.02 0.03 0.03 0.03 0.04 0.03 0.02 0.03 0.03 0.03 0.03 0.04 0.06 0.06 0.05 0.03 0.02 0.02 0.02 0.03 0.05 0.06 0.05
0.02 0.02 0.01 0.01 0.00 0.00 0.01 0.01 0.04 0.06 0.07 0.08 0.09 0.10 0.08 0.06 0.07 0.05 0.04 0.04 0.03 0.03 0.04 0.03 0.03 0.04 0.04 0.04 0.03 0.03 0.03 0.02 0.02 0.03 0.04 0.06 0.06 0.05 0.04 0.03 0.03 0.04 0.04
0.03 0.03 0.02 0.01 0.00 0.00 0.00 0.00 0.01 0.01 0.02 0.04 0.07 0.10 0.08 0.08 0.10 0.11 0.09 0.06 0.04 0.04 0.05 0.04 0.03 0.04 0.05 0.05 0.04 0.03 0.02 0.02 0.01 0.02 0.03 0.04 0.05 0.06 0.06 0.06 0.04 0.04 0.04
0.02 0.01 0.01 0.00 0.00 0.00 0.00 0.00 0.00 0.01 0.02 0.03 0.04 0.07 0.08 0.11 0.17 0.20 0.15 0.10 0.07 0.05 0.06 0.06 0.05 0.04 0.04 0.04 0.04 0.03 0.02 0.02 0.02 0.02 0.03 0.04 0.05 0.05 0.05 0.05 0.05 0.05 0.05
0.02 0.01 0.01 0.00 0.00 0.00 0.00 0.00 0.00 0.00 0.01 0.01 0.02 0.03 0.05 0.08 0.12 0.10 0.09 0.09 0.10 0.10 0.11 0.12 0.11 0.09 0.06 0.05 0.05 0.06 0.06 0.06 0.05 0.04 0.04 0.04 0.04 0.05 0.05 0.05 0.05 0.05 0.04
0.02 0.02 0.01 0.01 0.01 0.01 0.01 0.01 0.00 0.00 0.00 0.00 0.00 0.00 0.01 0.02 0.04 0.06 0.06 0.05 0.07 0.08 0.09 0.11 0.13 0.12 0.10 0.08 0.07 0.07 0.08 0.08 0.06 0.05 0.05 0.04 0.04 0.04 0.04 0.04 0.05 0.04 0.04
0.02 0.02 0.02 0.01 0.01 0.01 0.01 0.00 0.00 0.00 0.00 0.00 0.00 0.00 0.00 0.01 0.03 0.05 0.05 0.05 0.05 0.05 0.05 0.07 0.11 0.11 0.09 0.10 0.09 0.09 0.09 0.07 0.07 0.06 0.06 0.06 0.06 0.06 0.06 0.06 0.05 0.03 0.03
0.02 0.03 0.03 0.02 0.01 0.01 0.01 0.00 0.00 0.00 0.00 0.00 0.00 0.00 0.01 0.01 0.02 0.03 0.04 0.05 0.05 0.05 0.05 0.05 0.08 0.08 0.07 0.07 0.07 0.07 0.07 0.06 0.05 0.07 0.07 0.07 0.06 0.05 0.06 0.05 0.04 0.03 0.02
0.01 0.02 0.04 0.02 0.01 0.01 0.02 0.01 0.01 0.00 0.00 0.00 0.00 0.00 0.01 0.02 0.02 0.03 0.05 0.07 0.08 0.07 0.07 0.06 0.07 0.07 0.06 0.05 0.05 0.06 0.04 0.04 0.04 0.05 0.05 0.06 0.05 0.05 0.04 0.03 0.03 0.02 0.02
0.02 0.02 0.02 0.02 0.01 0.01 0.01 0.01 0.01 0.00 0.00 0.00 0.01 0.01 0.02 0.02 0.02 0.03 0.04 0.07 0.09 0.09 0.08 0.08 0.08 0.07 0.06 0.05 0.04 0.06 0.05 0.05 0.06 0.06 0.05 0.05 0.06 0.06 0.05 0.04 0.03 0.03 0.03
0.01 0.02 0.01 0.01 0.01 0.02 0.01 0.00 0.01 0.01 0.01 0.01 0.02 0.02 0.02 0.01 0.01 0.03 0.04 0.06 0.08 0.08 0.08 0.09 0.10 0.08 0.07 0.05 0.04 0.06 0.07 0.08 0.08 0.08 0.06 0.06 0.07 0.08 0.08 0.08 0.07 0.06 0.05
0.02 0.02 0.02 0.02 0.02 0.04 0.04 0.02 0.01 0.01 0.02 0.02 0.02 0.02 0.02 0.03 0.03 0.04 0.05 0.05 0.06 0.06 0.07 0.09 0.12 0.11 0.09 0.08 0.06 0.05 0.06 0.06 0.05 0.04 0.05 0.06 0.07 0.08 0.09 0.11 0.11 0.09 0.07
0.03 0.03 0.03 0.03 0.03 0.02 0.04 0.04 0.03 0.03 0.03 0.03 0.03 0.03 0.03 0.03 0.04 0.04 0.04 0.04 0.03 0.03 0.04 0.07 0.09 0.07 0.06 0.05 0.03 0.02 0.02 0.03 0.03 0.03 0.05 0.06 0.06 0.06 0.06 0.06 0.06 0.06 0.04
0.05 0.04 0.03 0.04 0.05 0.05 0.04 0.04 0.04 0.04 0.04 0.04 0.03 0.03 0.03 0.02 0.02 0.02 0.02 0.02 0.02 0.02 0.02 0.03 0.04 0.04 0.03 0.02 0.03 0.03 0.03 0.03 0.03 0.04 0.05 0.05 0.05 0.05 0.06 0.07 0.07 0.07 0.08
0.07 0.05 0.04 0.03 0.04 0.06 0.06 0.05 0.06 0.05 0.05 0.04 0.04 0.03 0.02 0.01 0.02 0.01 0.02 0.03 0.03 0.03 0.03 0.03 0.04 0.05 0.06 0.05 0.04 0.05 0.04 0.04 0.04 0.04 0.03 0.03 0.03 0.04 0.04 0.05 0.06 0.06 0.08
MSLP
1009.44 1009.43 1009.45 1009.46 1009.46 1009.44 1009.45 1009.54 1009.73 1010.02 1010.41 1010.83 1011.22 1011.52 1011.68 1011.65 1011.46 1011.13 1010.73 1010.32 1009.97 1009.71 1009.58 1009.56 1009.64 1009.79 1009.96 1010.14 1010.30 1010.43 1010.53 1010.58 1010.56 1010.46 1010.25 1009.91 1009.45 1008.87 1008.22 1007.54 1006.91 1006.38 1006.01
1009.15 1009.15 1009.18 1009.18 1009.16 1009.12 1009.12 1009.20 1009.40 1009.74 1010.18 1010.67 1011.14 1011.50 1011.68 1011.65 1011.42 1011.02 1010.54 1010.04 1009.59 1009.27 1009.09 1009.05 1009.14 1009.31 1009.52 1009.75 1009.98 1010.17 1010.33 1010.44 1010.48 1010.43 1010.27 1009.98 1009.54 1008.98 1008.31 1007.61 1006.93 1006.34 1005.88
1008.77 1008.81 1008.87 1008.90 1008.88 1008.84 1008.83 1008.90 1009.11 1009.47 1009.94 1010.49 1011.01 1011.42 1011.65 1011.65 1011.43 1011.02 1010.50 1009.96 1009.48 1009.11 1008.90 1008.85 1008.93 1009.11 1009.34 1009.60 1009.86 1010.09 1010.29 1010.45 1010.54 1010.55 1010.44 1010.19 1009.80 1009.26 1008.61 1007.90 1007.19 1006.54 1006.02
1008.28 1008.40 1008.53 1008.63 1008.66 1008.64 1008.64 1008.70 1008.90 1009.25 1009.74 1010.30 1010.86 1011.32 1011.61 1011.68 1011.51 1011.15 1010.67 1010.15 1009.67 1009.31 1009.09 1009.02 1009.09 1009.26 1009.49 1009.75 1010.01 1010.25 1010.48 1010.66 1010.79 1010.84 1010.78 1010.58 1010.24 1009.74 1009.12 1008.42 1007.70 1007.02 1006.43
1007.71 1007.94 1008.19 1008.39 1008.51 1008.55 1008.57 1008.64 1008.82 1009.15 1009.62 1010.18 1010.76 1011.26 1011.61 1011.76 1011.69 1011.42 1011.03 1010.59 1010.18 1009.85 1009.65 1009.58 1009.63 1009.78 1009.98 1010.20 1010.44 1010.67 1010.88 1011.07 1011.22 1011.29 1011.27 1011.13 1010.83 1010.39 1009.81 1009.14 1008.43 1007.74 1007.10
1007.12 1007.49 1007.90 1008.24 1008.48 1008.61 1008.68 1008.76 1008.93 1009.22 1009.65 1010.19 1010.76 1011.29 1011.70 1011.94 1011.98 1011.85 1011.58 1011.26 1010.94 1010.68 1010.51 1010.45 1010.49 1010.60 1010.75 1010.92 1011.11 1011.29 1011.47 1011.65 1011.79 1011.88 1011.89 1011.79 1011.55 1011.16 1010.64 1010.01 1009.32 1008.63 1007.97
1006.59 1007.12 1007.70 1008.22 1008.60 1008.84 1008.98 1009.09 1009.24 1009.50 1009.88 1010.37 1010.92 1011.46 1011.91 1012.23 1012.39 1012.39 1012.27 1012.08 1011.87 1011.70 1011.58 1011.53 1011.55 1011.62 1011.71 1011.82 1011.93 1012.06 1012.19 1012.33 1012.45 1012.55 1012.58 1012.51 1012.32 1011.99 1011.52 1010.95 1010.30 1009.63 1008.96
1006.20 1006.90 1007.65 1008.33 1008.86 1009.22 1009.44 1009.59 1009.74 1009.97 1010.30 1010.74 1011.24 1011.77 1012.25 1012.63 1012.89 1013.01 1013.02 1012.96 1012.87 1012.78 1012.71 1012.69 1012.69 1012.71 1012.74 1012.78 1012.82 1012.88 1012.95 1013.05 1013.14 1013.23 1013.26 1013.22 1013.07 1012.80 1012.40 1011.88 1011.29 1010.65 1009.99
1006.01 1006.84 1007.74 1008.57 1009.24 1009.71 1010.02 1010.22 1010.38 1010.58 1010.87 1011.26 1011.72 1012.22 1012.70 1013.12 1013.44 1013.65 1013.77 1013.82 1013.82 1013.81 1013.80 1013.79 1013.78 1013.77 1013.75 1013.72 1013.70 1013.69 1013.70 1013.75 1013.81 1013.88 1013.92 1013.90 1013.78 1013.55 1013.21 1012.75 1012.21 1011.61 1010.99
1006.04 1006.98 1007.98 1008.91 1009.68 1010.25 1010.63 1010.88 1011.07 1011.27 1011.54 1011.88 1012.30 1012.76 1013.22 1013.64 1014.00 1014.27 1014.46 1014.58 1014.67 1014.72 1014.75 1014.76 1014.75 1014.72 1014.66 1014.59 1014.51 1014.45 1014.41 1014.41 1014.44 1014.48 1014.51 1014.50 1014.41 1014.22 1013.92 1013.52 1013.03 1012.48 1011.89
1006.27 1007.26 1008.32 1009.30 1010.12 1010.75 1011.19 1011.50 1011.72 1011.94 1012.21 1012.53 1012.92 1013.34 1013.77 1014.18 1014.53 1014.82 1015.06 1015.23 1015.37 1015.47 1015.54 1015.57 1015.57 1015.54 1015.46 1015.36 1015.25 1015.14 1015.06 1015.02 1015.02 1015.04 1015.06 1015.04 1014.97 1014.80 1014.54 1014.18 1013.74 1013.23 1012.68
1006.65 1007.65 1008.69 1009.67 1010.50 1011.15 1011.63 1011.99 1012.27 1012.53 1012.81 1013.14 1013.51 1013.91 1014.31 1014.69 1015.03 1015.32 1015.57 1015.77 1015.94 1016.08 1016.18 1016.25 1016.27 1016.25 1016.17 1016.06 1015.93 1015.80 1015.69 1015.62 1015.58 1015.57 1015.57 1015.54 1015.47 1015.31 1015.07 1014.74 1014.34 1013.86 1013.35
1007.11 1008.07 1009.06 1009.98 1010.78 1011.42 1011.93 1012.33 1012.67 1012.99 1013.32 1013.68 1014.06 1014.45 1014.83 1015.18 1015.49 1015.77 1016.02 1016.23 1016.43 1016.60 1016.74 1016.85 1016.90 1016.90 1016.84 1016.74 1016.60 1016.45 1016.32 1016.22 1016.15 1016.10 1016.07 1016.02 1015.93 1015.78 1015.55 1015.24 1014.85 1014.41 1013.93
1007.58 1008.48 1009.37 1010.21 1010.95 1011.58 1012.10 1012.55 1012.95 1013.35 1013.74 1014.15 1014.55 1014.94 1015.31 1015.64 1015.94 1016.20 1016.44 1016.66 1016.88 1017.09 1017.27 1017.42 1017.51 1017.54 1017.50 1017.41 1017.27 1017.11 1016.96 1016.82 1016.72 1016.64 1016.57 1016.49 1016.38 1016.22 1015.98 1015.68 1015.31 1014.89 1014.44
1008.02 1008.83 1009.63 1010.38 1011.06 1011.65 1012.19 1012.69 1013.17 1013.64 1014.11 1014.57 1015.01 1015.42 1015.78 1016.10 1016.38 1016.63 1016.87 1017.11 1017.34 1017.58 1017.81 1017.99 1018.13 1018.19 1018.18 1018.09 1017.95 1017.78 1017.60 1017.43 1017.29 1017.16 1017.06 1016.95 1016.81 1016.63 1016.39 1016.09 1015.73 1015.32 1014.90
1008.37 1009.11 1009.83 1010.51 1011.13 1011.72 1012.28 1012.83 1013.38 1013.93 1014.47 1014.99 1015.46 1015.89 1016.25 1016.56 1016.83 1017.08 1017.32 1017.57 1017.84 1018.11 1018.37 1018.60 1018.76 1018.85 1018.86 1018.78 1018.63 1018.44 1018.23 1018.02 1017.83 1017.67 1017.52 1017.38 1017.21 1017.02 1016.77 1016.46 1016.11 1015.72 1015.31
1008.62 1009.32 1009.99 1010.63 1011.24 1011.83 1012.43 1013.04 1013.66 1014.27 1014.87 1015.43 1015.93 1016.36 1016.72 1017.03 1017.29 1017.54 1017.79 1018.06 1018.35 1018.66 1018.95 1019.20 1019.39 1019.50 1019.51 1019.43 1019.26 1019.05 1018.80 1018.56 1018.33 1018.13 1017.94 1017.77 1017.58 1017.37 1017.11 1016.81 1016.46 1016.09 1015.69
1008.76 1009.46 1010.12 1010.76 1011.39 1012.03 1012.68 1013.35 1014.02 1014.69 1015.33 1015.91 1016.42 1016.84 1017.20 1017.49 1017.75 1018.00 1018.26 1018.55 1018.87 1019.20 1019.51 1019.79 1019.99 1020.10 1020.10 1020.01 1019.82 1019.58 1019.30 1019.03 1018.76 1018.53 1018.31 1018.11 1017.91 1017.69 1017.43 1017.13 1016.79 1016.42 1016.03
1008.79 1009.52 1010.23 1010.91 1011.60 1012.30 1013.02 1013.74 1014.47 1015.17 1015.82 1016.40 1016.89 1017.31 1017.64 1017.92 1018.18 1018.43 1018.71 1019.02 1019.36 1019.70 1020.04 1020.32 1020.52 1020.62 1020.62 1020.50 1020.29 1020.02 1019.72 1019.42 1019.13 1018.87 1018.64 1018.42 1018.21 1017.98 1017.71 1017.41 1017.08 1016.71 1016.33
1008.74 1009.53 1010.31 1011.08 1011.85 1012.62 1013.41 1014.18 1014.94 1015.65 1016.30 1016.86 1017.33 1017.72 1018.04 1018.31 1018.56 1018.82 1019.12 1019.45 1019.80 1020.16 1020.50 1020.78 1020.97 1021.06 1021.03 1020.90 1020.67 1020.38 1020.07 1019.75 1019.45 1019.18 1018.93 1018.71 1018.48 1018.24 1017.98 1017.67 1017.33 1016.95 1016.57
1008.60 1009.48 1010.35 1011.22 1012.08 1012.94 1013.78 1014.60 1015.38 1016.09 1016.72 1017.25 1017.70 1018.06 1018.36 1018.63 1018.89 1019.17 1019.48 1019.83 1020.19 1020.56 1020.90 1021.17 1021.35 1021.42 1021.37 1021.22 1020.98 1020.69 1020.37 1020.05 1019.74 1019.47 1019.22 1018.99 1018.76 1018.50 1018.22 1017.90 1017.54 1017.15 1016.74
1008.41 1009.39 1010.36 1011.33 1012.27 1013.20 1014.09 1014.94 1015.72 1016.41 1017.02 1017.53 1017.95 1018.30 1018.61 1018.88 1019.17 1019.47 1019.80 1020.17 1020.55 1020.92 1021.24 1021.50 1021.66 1021.71 1021.65 1021.49 1021.25 1020.96 1020.65 1020.34 1020.05 1019.78 1019.53 1019.28 1019.03 1018.76 1018.45 1018.09 1017.70 1017.27 1016.83
1008.22 1009.29 1010.35 1011.39 1012.40 1013.38 1014.30 1015.15 1015.92 1016.60 1017.19 1017.68 1018.10 1018.45 1018.77 1019.08 1019.40 1019.74 1020.10 1020.49 1020.88 1021.24 1021.55 1021.79 1021.93 1021.96 1021.89 1021.73 1021.50 1021.23 1020.94 1020.64 1020.36 1020.10 1019.84 1019.58 1019.30 1019.00 1018.64 1018.25 1017.81 1017.33 1016.83
1008.07 1009.21 1010.33 1011.43 1012.48 1013.47 1014.39 1015.24 1015.99 1016.65 1017.22 1017.72 1018.15 1018.53 1018.89 1019.25 1019.62 1020.00 1020.40 1020.81 1021.20 1021.55 1021.85 1022.06 1022.18 1022.20 1022.12 1021.97 1021.75 1021.50 1021.23 1020.95 1020.68 1020.42 1020.15 1019.87 1019.55 1019.20 1018.80 1018.34 1017.84 1017.30 1016.75
1008.02 1009.20 1010.36 1011.47 1012.52 1013.50 1014.41 1015.22 1015.95 1016.60 1017.17 1017.68 1018.14 1018.57 1018.99 1019.41 1019.84 1020.27 1020.70 1021.13 1021.52 1021.86 1022.13 1022.32 1022.41 1022.41 1022.33 1022.18 1021.98 1021.75 1021.50 1021.24 1020.98 1020.71 1020.42 1020.11 1019.75 1019.35 1018.88 1018.37 1017.80 1017.20 1016.57
1008.10 1009.30 1010.46 1011.56 1012.59 1013.53 1014.39 1015.17 1015.86 1016.50 1017.07 1017.61 1018.12 1018.61 1019.10 1019.58 1020.07 1020.55 1021.02 1021.45 1021.83 1022.15 1022.39 1022.55 1022.62 1022.60 1022.52 1022.38 1022.19 1021.97 1021.74 1021.49 1021.23 1020.94 1020.63 1020.27 1019.87 1019.41 1018.89 1018.31 1017.68 1017.01 1016.32
Thickness
5820 5821 5820 5817 5813 5809 5805 5803 5800 5797 5795 5791 5788 5785 5783 5783 5783 5783 5783 5781 5780 5778 5777 5776 5774 5773 5770 5769 5768 5766 5764 5762 5763 5758 5755 5756 5758 5758 5759 5759 5758 5757 5756
5817 5818 5817 5816 5813 5809 5806 5803 5801 5798 5796 5793 5790 5788 5785 5783 5783 5783 5781 5780 5779 5777 5776 5775 5773 5771 5769 5768 5766 5764 5761 5760 5760 5754 5748 5744 5747 5752 5757 5757 5756 5755 5755
5818 5817 5816 5814 5813 5810 5808 5806 5802 5800 5797 5795 5791 5788 5784 5782 5780 5779 5778 5779 5777 5776 5775 5774 5773 5771 5769 5766 5765 5763 5759 5755 5756 5755 5748 5740 5736 5741 5748 5752 5753 5752 5752
5821 5819 5817 5814 5814 5813 5811 5808 5804 5800 5798 5795 5791 5785 5780 5776 5777 5777 5777 5776 5776 5775 5774 5773 5772 5770 5769 5766 5764 5763 5759 5756 5752 5752 5752 5749 5745 5738 5737 5744 5748 5749 5749
5825 5822 5820 5818 5817 5815 5811 5807 5803 5800 5797 5794 5791 5786 5781 5778 5777 5776 5775 5774 5773 5773 5772 5771 5770 5768 5767 5765 5763 5761 5759 5756 5753 5750 5748 5746 5744 5742 5735 5733 5737 5742 5745
5827 5825 5824 5820 5816 5814 5810 5807 5801 5798 5796 5793 5790 5786 5781 5777 5774 5772 5771 5770 5770 5770 5769 5768 5767 5766 5764 5763 5761 5760 5757 5755 5753 5750 5748 5744 5740 5737 5735 5731 5731 5733 5738
5825 5823 5820 5817 5814 5811 5809 5805 5801 5797 5795 5792 5789 5786 5782 5778 5774 5772 5770 5768 5766 5766 5766 5766 5765 5763 5762 5761 5760 5758 5755 5754 5751 5749 5746 5744 5742 5740 5736 5731 5729 5729 5733
5824 5823 5821 5818 5814 5811 5808 5804 5800 5796 5794 5791 5788 5785 5782 5778 5775 5773 5770 5768 5766 5765 5765 5764 5762 5761 5760 5759 5757 5755 5753 5752 5749 5748 5745 5742 5741 5739 5736 5732 5727 5723 5723
5824 5823 5820 5817 5813 5809 5806 5803 5799 5795 5792 5789 5786 5783 5780 5777 5774 5772 5770 5768 5766 5765 5763 5761 5759 5758 5757 5756 5753 5751 5749 5748 5747 5745 5743 5740 5739 5737 5735 5733 5729 5721 5715
5819 5818 5818 5815 5812 5809 5805 5802 5798 5795 5792 5788 5784 5781 5778 5775 5773 5770 5767 5765 5764 5762 5760 5758 5756 5755 5754 5752 5750 5748 5746 5744 5743 5741 5739 5736 5735 5734 5732 5730 5727 5724 5718
5815 5814 5812 5811 5809 5805 5801 5797 5794 5790 5787 5785 5781 5778 5775 5772 5769 5767 5765 5763 5761 5759 5757 5755 5753 5751 5750 5749 5746 5744 5742 5740 5738 5737 5735 5733 5732 5729 5728 5726 5724 5721 5717
5813 5811 5808 5805 5802 5799 5796 5792 5790 5787 5784 5782 5778 5775 5771 5768 5765 5763 5761 5759 5757 5756 5754 5752 5749 5747 5746 5744 5742 5739 5737 5735 5732 5731 5729 5727 5727 5724 5723 5720 5718 5717 5715
5806 5804 5801 5799 5796 5794 5791 5788 5786 5784 5781 5779 5775 5770 5766 5764 5760 5758 5757 5755 5752 5750 5749 5747 5745 5743 5741 5739 5737 5735 5733 5731 5729 5726 5724 5722 5721 5719 5717 5715 5713 5711 5711
5800 5797 5794 5793 5793 5790 5787 5784 5782 5780 5777 5774 5769 5765 5763 5760 5757 5754 5751 5749 5747 5745 5743 5741 5740 5738 5736 5734 5732 5729 5727 5725 5724 5722 5720 5718 5716 5714 5712 5710 5708 5706 5704
5793 5793 5791 5789 5787 5785 5782 5780 5777 5775 5772 5768 5764 5761 5759 5757 5753 5749 5746 5744 5742 5740 5737 5735 5733 5732 5730 5729 5726 5724 5722 5719 5717 5716 5715 5714 5713 5711 5709 5706 5703 5701 5697
5788 5788 5788 5786 5784 5782 5779 5775 5772 5770 5767 5763 5759 5757 5754 5751 5748 5744 5742 5739 5736 5733 5730 5727 5725 5723 5723 5722 5720 5719 5716 5713 5711 5709 5709 5709 5708 5707 5704 5702 5701 5698 5694
5783 5783 5783 5782 5780 5779 5777 5772 5770 5767 5762 5758 5754 5751 5748 5745 5743 5741 5737 5733 5730 5727 5724 5721 5719 5716 5715 5715 5713 5712 5710 5707 5705 5704 5703 5703 5703 5701 5698 5696 5695 5693 5692
5782 5781 5780 5779 5778 5776 5773 5769 5766 5761 5756 5753 5749 5747 5743 5740 5737 5734 5730 5727 5724 5721 5718 5715 5713 5710 5709 5708 5706 5705 5703 5701 5699 5698 5697 5696 5695 5695 5692 5690 5688 5687 5686
5782 5781 5780 5778 5775 5772 5768 5763 5757 5754 5750 5747 5745 5743 5739 5735 5731 5727 5724 5722 5719 5716 5713 5711 5707 5704 5702 5701 5699 5698 5695 5692 5692 5692 5691 5690 5689 5689 5686 5683 5681 5679 5680
5777 5776 5776 5774 5769 5767 5764 5755 5750 5747 5745 5744 5742 5739 5735 5730 5726 5723 5720 5717 5714 5711 5708 5705 5702 5699 5696 5694 5692 5689 5687 5684 5684 5685 5685 5683 5683 5681 5679 5677 5675 5672 5672
5771 5770 5769 5766 5764 5763 5758 5751 5746 5742 5742 5740 5737 5733 5730 5726 5722 5718 5715 5712 5708 5705 5701 5697 5694 5692 5689 5687 5686 5683 5680 5678 5677 5677 5677 5676 5676 5674 5673 5671 5669 5669 5667
5763 5762 5760 5758 5758 5757 5752 5746 5741 5739 5736 5732 5728 5725 5722 5720 5717 5712 5709 5705 5701 5697 5693 5689 5685 5684 5683 5681 5679 5677 5675 5673 5671 5670 5670 5669 5669 5667 5666 5664 5663 5662 5659
5755 5756 5754 5751 5749 5748 5746 5740 5737 5735 5730 5725 5720 5717 5714 5711 5708 5704 5700 5696 5693 5689 5685 5682 5678 5676 5675 5673 5672 5670 5668 5667 5665 5664 5664 5662 5661 5660 5659 5658 5656 5654 5651
5747 5747 5745 5742 5739 5739 5739 5736 5732 5728 5723 5718 5713 5709 5705 5702 5699 5697 5693 5689 5685 5683 5679 5675 5672 5669 5667 5666 5664 5662 5660 5659 5657 5656 5655 5654 5652 5652 5651 5649 5648 5646 5644
5737 5737 5736 5734 5732 5732 5730 5729 5725 5722 5716 5710 5706 5702 5699 5696 5691 5688 5685 5683 5680 5678 5675 5672 5668 5664 5661 5661 5659 5655 5653 5651 5649 5646 5644 5643 5641 5640 5640 5639 5637 5636 5635
5726 5726 5727 5726 5724 5723 5721 5720 5718 5715 5709 5703 5697 5694 5691 5688 5684 5680 5676 5675 5673 5671 5670 5668 5664 5662 5659 5657 5653 5650 5647 5644 5641 5638 5635 5633 5632 5630 5630 5629 5629 5627 5626